Change the Weather History Date:

Monday, January 14, 2013

  Actual Average Record
Temperature  
Mean Temperature 16 °F -  
Max Temperature 29 °F 31 °F 51 °F (2006)
Min Temperature 4 °F 14 °F -7 °F (2009)
Degree Days  
Heating Degree Days 48    
Moisture  
Dew Point 8 °F    
Average Humidity 71    
Maximum Humidity 89    
Minimum Humidity 40    
Precipitation  
Precipitation 0.00 in - - ()
Sea Level Pressure  
Sea Level Pressure 30.45 in    
Wind  
Wind Speed 3 mph (SSW)    
Max Wind Speed 8 mph    
Max Gust Speed -    
Visibility 10 miles    
Events      
Averages and records for this station are not official NWS values.
T = Trace of Precipitation, MM = Missing Value Source: NWS Daily Summary

Daily Weather History Graph

Daily Weather History Graph

Search for Another Location

Airport or City:

Trip Planner

Search our weather history database for the weather conditions in past years. The results will help you decide how hot, cold, wet, or windy it might be!

Date:

Astronomy

Jan. 14, 2013 Rise Set
Actual Time 7:46 AM CST 5:19 PM CST
Civil Twilight 7:16 AM CST 5:49 PM CST
Nautical Twilight 6:42 AM CST 6:23 PM CST
Astronomical Twilight 6:09 AM CST 6:56 PM CST
Moon 9:19 AM CST (1/14) 9:08 PM CST (1/14)
Length of Visible Light 10h 32m
Length of Day
9h 32m
Waxing Crescent, 11% of the Moon is Illuminated
Jan 14
Waxing Crescent
Jan 18
First Quarter
Jan 26
Full
Feb 3
Last Quarter
Feb 10
New

Hourly Weather History & Observations

Time (CST) Temp. Windchill Dew Point Humidity Pressure Visibility Wind Dir Wind Speed Gust Speed Precip Events Conditions
12:55 AM 11.7 °F 3.7 °F 5.0 °F 75% 30.40 in 10.0 mi SW 4.6 mph - N/A   Clear
1:55 AM 11.7 °F - 4.8 °F 74% 30.42 in 10.0 mi Calm Calm - N/A   Clear
2:55 AM 7.2 °F - 3.6 °F 85% 30.44 in 10.0 mi Calm Calm - N/A   Clear
3:55 AM 7.3 °F 0.5 °F 3.9 °F 86% 30.45 in 10.0 mi South 3.5 mph - N/A   Clear
4:55 AM 6.1 °F -0.9 °F 3.2 °F 88% 30.44 in 10.0 mi South 3.5 mph - N/A   Clear
5:55 AM 5.7 °F - 2.8 °F 88% 30.46 in 10.0 mi Calm Calm - N/A   Clear
6:55 AM 4.6 °F - 1.9 °F 89% 30.48 in 10.0 mi Calm Calm - N/A   Clear
7:55 AM 4.3 °F - 1.2 °F 87% 30.51 in 10.0 mi Calm Calm - N/A   Clear
8:55 AM 11.8 °F - 7.5 °F 83% 30.53 in 10.0 mi Calm Calm - N/A   Clear
9:55 AM 16.3 °F - 10.0 °F 76% 30.53 in 10.0 mi Calm Calm - N/A   Clear
10:55 AM 21.7 °F 14.3 °F 12.9 °F 69% 30.52 in 10.0 mi SSE 5.8 mph - N/A   Clear
11:55 AM 26.1 °F 20.5 °F 12.0 °F 55% 30.48 in 10.0 mi SW 4.6 mph - N/A   Clear
12:55 PM 28.0 °F 20.0 °F 10.0 °F 47% 30.44 in 10.0 mi WSW 8.1 mph - N/A   Clear
1:55 PM 28.6 °F 21.5 °F 8.4 °F 43% 30.41 in 10.0 mi West 6.9 mph - N/A   Clear
2:55 PM 29.3 °F 22.3 °F 7.5 °F 40% 30.42 in 10.0 mi West 6.9 mph - N/A   Clear
3:55 PM 28.9 °F 22.8 °F 7.5 °F 41% 30.41 in 10.0 mi SW 5.8 mph - N/A   Clear
4:55 PM 27.5 °F 22.2 °F 9.0 °F 46% 30.41 in 10.0 mi WSW 4.6 mph - N/A   Clear
5:55 PM 26.2 °F - 9.3 °F 49% 30.42 in 10.0 mi Calm Calm - N/A   Clear
6:55 PM 18.3 °F - 10.6 °F 72% 30.44 in 10.0 mi Calm Calm - N/A   Clear
7:55 PM 16.9 °F 11.5 °F 11.7 °F 80% 30.44 in 10.0 mi SE 3.5 mph - N/A   Clear
8:55 PM 13.6 °F - 10.2 °F 86% 30.43 in 10.0 mi Calm Calm - N/A   Clear
9:55 PM 12.9 °F - 9.7 °F 87% 30.42 in 10.0 mi Calm Calm - N/A   Clear
10:55 PM 16.5 °F 11.0 °F 10.0 °F 76% 30.42 in 10.0 mi South 3.5 mph - N/A   Clear
11:55 PM 17.1 °F 11.7 °F 9.9 °F 73% 30.41 in 10.0 mi South 3.5 mph - N/A   Clear